This is the latest recevied weather packets stored in our database for station/object KF0WJA. If no packets are shown the sender has not sent any weather packets the latest 10 day(s).
| Time | Temp. | Humidity | Pressure | Rain* | Wind** | Luminosity | Snow |
|---|---|---|---|---|---|---|---|
| 1788396779 | 32.78° C | 44% | 1014.1 hPa | 0 mm | - | 3 W/m² | - |
| 1788396475 | 32.78° C | 44% | 1014.2 hPa | 0 mm | - | 7 W/m² | - |
| 1788396171 | 33.33° C | 43% | 1014.1 hPa | 0 mm | - | 10 W/m² | - |
| 1788395865 | 33.89° C | 42% | 1014.3 hPa | 0 mm | - | 15 W/m² | - |
| 1788395560 | 33.89° C | 41% | 1014.2 hPa | 0 mm | - | 19 W/m² | - |
| 1788395255 | 34.44° C | 40% | 1013.8 hPa | 0 mm | - | 26 W/m² | - |
| 1788394949 | 34.44° C | 40% | 1014.2 hPa | 0 mm | - | 31 W/m² | - |
| 1788394645 | 35° C | 40% | 1014.2 hPa | 0 mm | - | 40 W/m² | - |
| 1788394345 | 35° C | 40% | 1014.2 hPa | 0 mm | - | 48 W/m² | - |
| 1788394040 | 35° C | 39% | 1014.1 hPa | 0 mm | - | 61 W/m² | - |
| 1788393739 | 35.56° C | 39% | 1014.3 hPa | 0 mm | - | 71 W/m² | - |
| 1788393438 | 35.56° C | 38% | 1014.1 hPa | 0 mm | - | 83 W/m² | - |
| 1788393134 | 35.56° C | 38% | 1014.2 hPa | 0 mm | - | 96 W/m² | - |
| 1788392833 | 36.11° C | 38% | 1013.8 hPa | 0 mm | - | 111 W/m² | - |
| 1788392532 | 36.11° C | 38% | 1014.1 hPa | 0 mm | - | 129 W/m² | - |
| 1788392232 | 36.11° C | 37% | 1014.1 hPa | 0 mm | - | 150 W/m² | - |
| 1788391932 | 36.11° C | 36% | 1013.9 hPa | 0 mm | - | 158 W/m² | - |
| 1788391630 | 36.11° C | 35% | 1013.8 hPa | 0 mm | - | 177 W/m² | - |
| 1788391325 | 36.67° C | 35% | 1013.9 hPa | 0 mm | - | 193 W/m² | - |
| 1788391020 | 36.67° C | 36% | 1014.2 hPa | 0 mm | - | 205 W/m² | - |
| 1788390720 | 36.67° C | 35% | 1014.2 hPa | 0 mm | - | 237 W/m² | - |
| 1788390415 | 36.67° C | 35% | 1014.2 hPa | 0 mm | - | 240 W/m² | - |
| 1788390114 | 37.22° C | 35% | 1014.2 hPa | 0 mm | - | 272 W/m² | - |
| 1788389809 | 36.67° C | 35% | 1014.3 hPa | 0 mm | - | 286 W/m² | - |
| 1788389508 | 37.22° C | 36% | 1014.4 hPa | 0 mm | - | 294 W/m² | - |
* Rain latest hour (hover to see other rain measurements)
** Current wind speed in m/s (hover to see current wind gust speed)